Weather History for Belfast, United Kingdom

Change the Weather History Date:

Monday, December 9, 2013

  Actual Average Record
Temperature  
Mean Temperature 50 °F -  
Max Temperature 51 °F 45 °F 53 °F (1998)
Min Temperature 48 °F 35 °F 24 °F (2010)
Degree Days  
Heating Degree Days 16    
Moisture  
Dew Point 45 °F    
Average Humidity 85    
Maximum Humidity 94    
Minimum Humidity 61    
Precipitation  
Precipitation 0.00 in 0.11 in - ()
Sea Level Pressure  
Sea Level Pressure 30.13 in    
Wind  
Wind Speed 11 mph ()    
Max Wind Speed 20 mph    
Max Gust Speed 25 mph    
Visibility 6.8 miles    
Events      
Averages and records for this station are not official NWS values.
T = Trace of Precipitation, MM = Missing Value Source: Averaged Metar Reports

Daily Weather History Graph

Daily Weather History Graph

Search for Another Location

Airport:

Trip Planner

Search our weather history database for the weather conditions in past years. The results will help you decide how hot, cold, wet, or windy it might be!

Date:

Astronomy

Dec. 09, 2013 Rise Set
Actual Time 8:35 AM GMT 3:59 PM GMT
Civil Twilight 7:51 AM GMT 4:43 PM GMT
Nautical Twilight 7:04 AM GMT 5:30 PM GMT
Astronomical Twilight 6:20 AM GMT 6:13 PM GMT
Moon 12:25 PM GMT (12/9) No Moon Set
Length of Visible Light 8h 52m
Length of Day
7h 23m
Waxing Crescent, 48% of the Moon is Illuminated
Dec 9
Waxing Crescent
Dec 9
First Quarter
Dec 17
Full
Dec 25
Last Quarter
Jan 1
New

Hourly Weather History & Observations

Time (GMT) Temp. Dew Point Humidity Pressure Visibility Wind Dir Wind Speed Gust Speed Precip Events Conditions
12:00 AM 52 °F 49 °F 85% 30.07 in 11 mi SW 11.5 mph - -   Mostly Cloudy
12:20 AM 51.8 °F 50.0 °F 94% 30.06 in 6.2 mi SSW 9.2 mph - N/A   Mostly Cloudy
12:50 AM 51.8 °F 48.2 °F 88% 30.06 in 6.2 mi SW 9.2 mph - N/A   Mostly Cloudy
1:20 AM 50.0 °F 48.2 °F 94% 30.06 in 6.2 mi SW 8.1 mph - N/A   Mostly Cloudy
1:50 AM 50.0 °F 48.2 °F 94% 30.09 in 6.2 mi SW 9.2 mph - N/A   Mostly Cloudy
2:20 AM 50.0 °F 48.2 °F 94% 30.09 in - SW 12.7 mph - N/A   Clear
2:50 AM 51.8 °F 48.2 °F 88% 30.09 in - SW 17.3 mph - N/A   Clear
3:00 AM 51 °F 48 °F 85% 30.09 in 9 mi SW 15.0 mph - -   Mostly Cloudy
3:20 AM 50.0 °F 48.2 °F 94% 30.06 in 6.2 mi SW 19.6 mph - N/A   Mostly Cloudy
3:50 AM 51.8 °F 48.2 °F 88% 30.09 in 6.2 mi SW 13.8 mph - N/A   Scattered Clouds
4:20 AM 50.0 °F 48.2 °F 94% 30.09 in - SSW 11.5 mph - N/A   Clear
4:50 AM 50.0 °F 48.2 °F 94% 30.09 in - SW 12.7 mph - N/A   Clear
5:20 AM 50.0 °F 48.2 °F 94% 30.09 in - SW 12.7 mph - N/A   Clear
5:50 AM 50.0 °F 48.2 °F 94% 30.12 in - SSW 15.0 mph - N/A   Clear
6:00 AM 51 °F 48 °F 86% 30.12 in 10 mi SSW 16.1 mph - -  
6:20 AM 50.0 °F 48.2 °F 94% 30.12 in 6.2 mi SSW 12.7 mph - N/A   Mostly Cloudy
6:50 AM 51.8 °F 48.2 °F 88% 30.12 in 6.2 mi SSW 11.5 mph - N/A   Mostly Cloudy
7:20 AM 50.0 °F 48.2 °F 94% 30.15 in 6.2 mi SSW 11.5 mph - N/A   Scattered Clouds
7:50 AM 50.0 °F 48.2 °F 94% 30.15 in 6.2 mi SSW 9.2 mph - N/A   Scattered Clouds
8:20 AM 50.0 °F 46.4 °F 87% 30.15 in 6.2 mi SSW 9.2 mph - N/A   Scattered Clouds
8:50 AM 50.0 °F 46.4 °F 87% 30.15 in 6.2 mi SSW 9.2 mph - N/A   Partly Cloudy
9:00 AM 48 °F 45 °F 85% 30.16 in 18 mi SSW 12.7 mph - -  
9:20 AM 48.2 °F 44.6 °F 87% 30.15 in 6.2 mi SSW 10.4 mph - N/A   Scattered Clouds
9:50 AM 50.0 °F 46.4 °F 87% 30.18 in 6.2 mi SSW 9.2 mph - N/A   Mostly Cloudy
10:20 AM 50.0 °F 46.4 °F 87% 30.18 in 6.2 mi South 6.9 mph - N/A   Mostly Cloudy
10:50 AM 50.0 °F 46.4 °F 87% 30.18 in 6.2 mi South 10.4 mph - N/A   Mostly Cloudy
11:20 AM 51.8 °F 46.4 °F 82% 30.15 in 6.2 mi SSW 11.5 mph - N/A   Scattered Clouds
11:50 AM 50.0 °F 46.4 °F 87% 30.15 in 6.2 mi SSW 11.5 mph - N/A   Scattered Clouds
12:00 PM 51 °F 46 °F 77% 30.17 in 12 mi South 12.7 mph - -   Mostly Cloudy
12:20 PM 50.0 °F 46.4 °F 87% 30.15 in 6.2 mi South 11.5 mph - N/A   Mostly Cloudy
12:50 PM 50.0 °F 46.4 °F 87% 30.15 in 6.2 mi SSW 11.5 mph - N/A   Mostly Cloudy
1:20 PM 50.0 °F 44.6 °F 82% 30.15 in 6.2 mi SSW 11.5 mph - N/A   Partly Cloudy
1:50 PM 50.0 °F 44.6 °F 82% 30.12 in 6.2 mi SSW 10.4 mph - N/A   Scattered Clouds
2:20 PM 50.0 °F 44.6 °F 82% 30.12 in 6.2 mi SSW 12.7 mph - N/A   Scattered Clouds
2:50 PM 50.0 °F 44.6 °F 82% 30.15 in 6.2 mi SSW 12.7 mph - N/A   Scattered Clouds
3:00 PM 50 °F 44 °F 75% 30.15 in 25 mi SSW 13.8 mph - -   Mostly Cloudy
3:20 PM 50.0 °F 44.6 °F 82% 30.15 in 6.2 mi SSW 9.2 mph - N/A   Scattered Clouds
3:50 PM 50.0 °F 44.6 °F 82% 30.15 in 6.2 mi SSW 9.2 mph - N/A   Mostly Cloudy
4:20 PM 50.0 °F 44.6 °F 82% 30.15 in 6.2 mi SSW 9.2 mph - N/A   Mostly Cloudy
4:50 PM 48.2 °F 44.6 °F 87% 30.15 in 6.2 mi SSW 8.1 mph - N/A   Scattered Clouds
5:20 PM 48.2 °F 42.8 °F 82% 30.15 in 6.2 mi South 6.9 mph - N/A   Scattered Clouds
5:50 PM 48.2 °F 42.8 °F 82% 30.15 in 6.2 mi South 8.1 mph - N/A   Scattered Clouds
6:00 PM 49 °F 43 °F 74% 30.15 in 25 mi SSE 15.0 mph - -  
6:20 PM 48.2 °F 42.8 °F 82% 30.15 in 6.2 mi SSE 9.2 mph - N/A   Scattered Clouds
6:50 PM 48.2 °F 44.6 °F 87% 30.15 in 6.2 mi South 10.4 mph - N/A   Partly Cloudy
7:20 PM 48.2 °F 42.8 °F 82% 30.15 in - South 11.5 mph - N/A   Clear
7:50 PM 48.2 °F 42.8 °F 82% 30.15 in 6.2 mi South 8.1 mph - N/A   Scattered Clouds
8:20 PM 48.2 °F 42.8 °F 82% 30.15 in 6.2 mi South 9.2 mph - N/A   Scattered Clouds
8:50 PM 48.2 °F 41.0 °F 76% 30.15 in 6.2 mi South 11.5 mph - N/A   Mostly Cloudy
9:00 PM 49 °F 40 °F 61% 30.15 in 28 mi SSE 16.1 mph - -   Overcast
9:20 PM 48.2 °F 41.0 °F 76% 30.12 in 6.2 mi South 10.4 mph - N/A   Mostly Cloudy
9:50 PM 48.2 °F 41.0 °F 76% 30.12 in 6.2 mi South 10.4 mph - N/A   Mostly Cloudy
10:20 PM 48.2 °F 41.0 °F 76% 30.12 in 6.2 mi South 13.8 mph 25.3 mph N/A   Overcast
10:50 PM 48.2 °F 41.0 °F 76% 30.12 in 6.2 mi South 12.7 mph - N/A   Overcast
11:20 PM 48.2 °F 42.8 °F 82% 30.12 in 6.2 mi South 12.7 mph - N/A   Overcast
11:50 PM 48.2 °F 42.8 °F 82% 30.12 in 6.2 mi South 15.0 mph - N/A   Mostly Cloudy